カタログに戻る

STARLINK-6121

運用中通信VLEO
NORAD 56129·PAYLOAD·🇺🇸 United States

打ち上げ Mar 29, 2023 から Cape Canaveral Space Force Station

Loading…

次のパス (今後24時間)

TLE

最新Source: CelesTrak SupGP

元期: Sep 14, 2026, 21:28 UTC

1 56129C 23046AN  26257.89493056  .00001493  00000+0  54094-4 0  2573
2 56129  42.9996 107.2298 0001235 263.9167 278.5824 15.27568332    17

AllMySatでSTARLINK-6121をリアルタイム追跡

Download on the App Store